Regional Weather Roundup
Issued by NWS

Home | Current Version | Previous Version | Graphics & Text | Print | Product List | Glossary On
Versions: 1 2 3 4 5 6 7 8 9 10 11 12 13 14 15 16 17 18 19 20 21 22 23 24 25 26 27 28 29 30 31 32 33 34 35 36 37 38 39 40 41 42 43 44 45 46 47 48 49 50
000
ASUS43 KLMK 251702
RWRKY
KENTUCKY REGIONAL WEATHER ROUNDUP
NATIONAL WEATHER SERVICE LOUISVILLE KY
100 PM EDT MON JUL 25 2016

NOTE "FAIR" INDICATES FEW OR NO CLOUDS BELOW 12,000 FEET
WITH NO SIGNIFICANT WEATHER AND/OR OBSTRUCTIONS TO VISIBILITY.

KYZ001>023-026-027-061>063-070>075-251800-
WESTERN AND SOUTH CENTRAL KENTUCKY

CITY           SKY/WX    TMP DP  RH WIND       PRES   REMARKS
PADUCAH        CLOUDY    90  76  63 SW8       30.01S HX 101
HENDERSON      CLOUDY    90  79  70 W18G24    30.00S THUNDER HX 105
OWENSBORO      CLOUDY    92  80  67 SW12      30.02S HX 110
HOPKINSVILLE   MOSUNNY   91  77  63 SW12      30.03S HX 103
BOWLING GREEN  CLOUDY    92  76  59 SW9       30.04S HX 104
GLASGOW        NOT AVBL
$$

KYZ024-025-028>034-038-045-046-053-251800-
NORTH CENTRAL KENTUCKY

CITY           SKY/WX    TMP DP  RH WIND       PRES   REMARKS
LOUISVILLE/SDF LGT RAIN  89  77  67 SW15      30.00F HX 101
LOUISVILLE/LOU MOSUNNY   92  74  55 W7        30.01F HX 101
FORT KNOX      CLOUDY    90  76  62 SW8       30.02S HX 101
$$

KYZ035>037-039>044-047>052-055>060-089>105-251800-
NORTHEAST KENTUCKY

CITY           SKY/WX    TMP DP  RH WIND       PRES   REMARKS
LEXINGTON      MOSUNNY   91  73  55 W10       30.04F HX  99
COVINGTON      CLOUDY    90  76  63 NW13G18   30.02F HX 101
FRANKFORT      PTSUNNY   91  75  59 VRB5      30.02F HX 101
$$

KYZ054-064>069-076>088-106>120-251800-
SOUTHEAST KENTUCKY

CITY           SKY/WX    TMP DP  RH WIND       PRES   REMARKS
JACKSON        MOSUNNY   89  74  60 VRB3      30.07F HX  98
LONDON         MOSUNNY   91  68  46 VRB7      30.07F HX  95
SOMERSET       MOSUNNY   88  70  55 SW5       30.07F HX  92
MIDDLESBORO    SUNNY     89  72  56 CALM      30.08F HX  96
MONTICELLO     MOSUNNY  N/A N/A N/A W13       30.08F
$$





USA.gov is the U.S. government's official web portal to all federal, state and local government web resources and services.